Weather in Selo imeni Poliny Osipenko

Russia / Khabarovsk Krai     52°25′15″N   136°29′37″E
temp.,
°C
wind,
m/s
gust,
m/s
humid.,
%
clouds,
%
prec.,
mm/h
press.,
hPa
HPBL,
m
26 february, fri
fri2601:00−16n1291100 0.0 102220
04:00−17n2290100 0.0 102220
07:00−18n2291100 0.0 102320
10:00−16n1287100 0.0 1024161
13:00−12nnw2380100 0.0 1024375
16:00−11nnw1276100 0.0 1024399
19:00−16nnw118687 0.0 102720
22:00−19nne019045 0.0 102920
27 february, sat
sat2701:00−19sse12910 0.0 103020
04:00−20sse239724 0.0 103033
07:00−20sse4998100 0.1 1030281
10:00−20sse5895100 0.1 1028354
13:00−16s4790100 0.0 1026479
16:00−13sse4888100 0.0 1023554
19:00−14sse4994100 0.2 1021517
22:00−14sse41095100 1.6 1018560
28 february, sun
sun2801:00−14se3895100 0.6 1015499
04:00−14ese1296100 0.8 101252
07:00−17n1298100 0.1 101325
10:00−14n2394100 0.2 1013243
13:00−11nnw2385100 0.2 1014505
16:00−11n3485100 0.3 1014487
19:00−14n2286100 0.1 101826
22:00−19nne5138498 0.1 1020264
1 march, mon
mon101:00−21n238329 0.0 102222
04:00−25w227314 0.0 102320
07:00−25wsw227288 0.0 102520
10:00−21sw237692 0.0 1025173
13:00−16sw356511 0.0 1024815
16:00−15sw466633 0.0 10231279
19:00−21w247495 0.0 102548
22:00−25n227150 0.0 102720
2 march, tue
tue201:00−28w226732 0.0 102721
04:00−31s127219 0.0 102820
07:00−32s22771 0.0 102924
10:00−27s35771 0.0 1028195
13:00−21s46760 0.0 1027443
16:00−16w485643 0.0 10261941
19:00−22wsw226430 0.0 102620
22:00−26s116620 0.0 102820